Weather History for Boise, ID

Change the Weather History Date:

Tuesday, June 3, 2014

  Actual Average Record
Temperature  
Mean Temperature 72 °F 64 °F  
Max Temperature 85 °F 77 °F 98 °F (2007)
Min Temperature 58 °F 51 °F 34 °F (1898)
Degree Days  
Heating Degree Days 0 4  
Month to date heating degree days 2 12  
Since 1 June heating degree days 2 12  
Since 1 July heating degree days 5511 5462  
Cooling Degree Days 7 3  
Month to date cooling degree days 15 8  
Year to date cooling degree days 39 52  
Since 1 June cooling degree days 15 8  
Growing Degree Days 20 (Base 50)    
Moisture  
Dew Point 35 °F    
Average Humidity 34    
Maximum Humidity 57    
Minimum Humidity 11    
Precipitation  
Precipitation 0.00 in 0.03 in 0.89 in (1908)
Month to date precipitation 0.00 0.10  
Year to date precipitation 8.10 6.34  
Snow  
Snow 0.00 in 0.00 in 0.00 in (2007)
Month to date snowfall 0.0 0.0  
Since 1 July snowfall 14.4 19.2  
Snow Depth 0.00 in    
Sea Level Pressure  
Sea Level Pressure 29.76 in    
Wind  
Wind Speed 7 mph (WNW)    
Max Wind Speed 17 mph    
Max Gust Speed 21 mph    
Visibility 10 miles    
Events      
T = Trace of Precipitation, MM = Missing Value Source: NWS Daily Summary

Daily Weather History Graph

Daily Weather History Graph

Search for Another Location

Airport:

Trip Planner

Search our weather history database for the weather conditions in past years. The results will help you decide how hot, cold, wet, or windy it might be!

Date:

Astronomy

Jun. 03, 2014 Rise Set
Actual Time 6:05 AM MDT 9:21 PM MDT
Civil Twilight 5:30 AM MDT 9:56 PM MDT
Nautical Twilight 4:45 AM MDT 10:41 PM MDT
Astronomical Twilight 3:49 AM MDT 11:37 PM MDT
Moon 11:39 AM MDT (6/3) 12:45 AM MDT (6/3)
Length of Visible Light 16h 25m
Length of Day
15h 15m
Waxing Crescent, 30% of the Moon is Illuminated
Jun 3
Waxing Crescent
Jun 5
First Quarter
Jun 12
Full
Jun 19
Last Quarter
Jun 27
New

Hourly Weather History & Observations

Time (MDT) Temp. Dew Point Humidity Pressure Visibility Wind Dir Wind Speed Gust Speed Precip Events Conditions
12:53 AM 70.0 °F 39.0 °F 32% 29.67 in 10.0 mi NW 9.2 mph - N/A   Clear
1:53 AM 66.9 °F 39.9 °F 37% 29.67 in 10.0 mi West 9.2 mph - N/A   Clear
2:53 AM 61.0 °F 39.9 °F 46% 29.66 in 10.0 mi SW 8.1 mph - N/A   Clear
3:53 AM 63.0 °F 42.1 °F 46% 29.68 in 10.0 mi WNW 8.1 mph - N/A   Clear
4:53 AM 59.0 °F 42.1 °F 53% 29.71 in 10.0 mi SSW 3.5 mph - N/A   Clear
5:53 AM 57.9 °F 43.0 °F 58% 29.74 in 10.0 mi NW 6.9 mph - N/A   Clear
6:53 AM 59.0 °F 44.1 °F 58% 29.76 in 10.0 mi Calm Calm - N/A   Clear
7:53 AM 62.1 °F 44.1 °F 52% 29.77 in 10.0 mi Calm Calm - N/A   Clear
8:53 AM 66.0 °F 44.1 °F 45% 29.79 in 10.0 mi Calm Calm - N/A   Clear
9:53 AM 70.0 °F 43.0 °F 38% 29.80 in 10.0 mi NNW 8.1 mph - N/A   Clear
10:53 AM 73.0 °F 42.1 °F 33% 29.81 in 10.0 mi WNW 9.2 mph - N/A   Clear
11:53 AM 75.9 °F 42.1 °F 30% 29.81 in 10.0 mi NW 6.9 mph - N/A   Clear
12:53 PM 78.1 °F 39.0 °F 25% 29.81 in 10.0 mi West 11.5 mph - N/A   Clear
1:53 PM 79.0 °F 37.0 °F 22% 29.80 in 10.0 mi NNW 10.4 mph - N/A   Clear
2:53 PM 82.0 °F 36.0 °F 19% 29.78 in 10.0 mi Variable 6.9 mph 18.4 mph N/A   Clear
3:53 PM 82.9 °F 27.0 °F 13% 29.78 in 10.0 mi West 10.4 mph 20.7 mph N/A   Clear
4:53 PM 84.0 °F 30.0 °F 14% 29.77 in 10.0 mi Variable 5.8 mph - N/A   Clear
5:53 PM 84.0 °F 24.1 °F 11% 29.75 in 10.0 mi WNW 12.7 mph 18.4 mph N/A   Clear
6:53 PM 82.9 °F 24.1 °F 12% 29.75 in 10.0 mi NNW 9.2 mph - N/A   Clear
7:53 PM 82.0 °F 23.0 °F 11% 29.74 in 10.0 mi NNW 11.5 mph - N/A   Clear
8:53 PM 78.1 °F 24.1 °F 14% 29.75 in 10.0 mi NNW 5.8 mph - N/A   Clear
9:53 PM 72.0 °F 26.1 °F 18% 29.76 in 10.0 mi ESE 4.6 mph - N/A   Clear
10:53 PM 69.8 °F 24.8 °F 18% 29.85 in 10.0 mi SE 5.8 mph - N/A   Clear
11:53 PM 66.2 °F 26.6 °F 23% 29.88 in 10.0 mi SSW 4.6 mph - N/A   Clear